owner,sensor,date,latitude,longitude,air_pressure(mBar),qcFlag 
WAVCIS,ioos:station:WAVCIS:CSI09:1,2009-07-01T00:00:00Z,29.1015,-89.9782,1006.668,11111222 
WAVCIS,ioos:station:WAVCIS:CSI09:1,2009-07-01T01:00:00Z,29.1015,-89.9782,1007.18,11111222 
WAVCIS,ioos:station:WAVCIS:CSI09:1,2009-07-01T02:00:00Z,29.1015,-89.9782,1007.52,11111222 
WAVCIS,ioos:station:WAVCIS:CSI09:1,2009-07-01T03:00:00Z,29.1015,-89.9782,1007.98,11111222 
WAVCIS,ioos:station:WAVCIS:CSI09:1,2009-07-01T04:00:00Z,29.1015,-89.9782,1008.27,11111222 
WAVCIS,ioos:station:WAVCIS:CSI09:1,2009-07-01T05:00:00Z,29.1015,-89.9782,1008.57,11111222 
WAVCIS,ioos:station:WAVCIS:CSI09:1,2009-07-01T06:00:00Z,29.1015,-89.9782,1008.08,11111222 
WAVCIS,ioos:station:WAVCIS:CSI09:1,2009-07-01T07:00:00Z,29.1015,-89.9782,1008.17,11111222 
WAVCIS,ioos:station:WAVCIS:CSI09:1,2009-07-01T08:00:00Z,29.1015,-89.9782,1007.9,11111222 
WAVCIS,ioos:station:WAVCIS:CSI09:1,2009-07-01T09:00:00Z,29.1015,-89.9782,1007.83,11111222 
WAVCIS,ioos:station:WAVCIS:CSI09:1,2009-07-01T10:00:00Z,29.1015,-89.9782,1007.73,11111222 
WAVCIS,ioos:station:WAVCIS:CSI09:1,2009-07-01T11:00:00Z,29.1015,-89.9782,1008.48,11111222 
WAVCIS,ioos:station:WAVCIS:CSI09:1,2009-07-01T12:00:00Z,29.1015,-89.9782,1009.14,11111222 
WAVCIS,ioos:station:WAVCIS:CSI09:1,2009-07-01T13:00:00Z,29.1015,-89.9782,1009.99,11111222 
WAVCIS,ioos:station:WAVCIS:CSI09:1,2009-07-01T14:00:00Z,29.1015,-89.9782,1010.49,11111222 
WAVCIS,ioos:station:WAVCIS:CSI09:1,2009-07-01T15:00:00Z,29.1015,-89.9782,1010.8,11111222 
WAVCIS,ioos:station:WAVCIS:CSI09:1,2009-07-01T16:00:00Z,29.1015,-89.9782,1010.88,11111222 
WAVCIS,ioos:station:WAVCIS:CSI09:1,2009-07-01T17:00:00Z,29.1015,-89.9782,1010.68,11111222 
WAVCIS,ioos:station:WAVCIS:CSI09:1,2009-07-01T18:00:00Z,29.1015,-89.9782,1010.55,11111222 
WAVCIS,ioos:station:WAVCIS:CSI09:1,2009-07-01T19:00:00Z,29.1015,-89.9782,1010.37,11111222 
WAVCIS,ioos:station:WAVCIS:CSI09:1,2009-07-01T20:00:00Z,29.1015,-89.9782,1009.93,11111222 
WAVCIS,ioos:station:WAVCIS:CSI09:1,2009-07-01T21:00:00Z,29.1015,-89.9782,1010.01,11111222 
WAVCIS,ioos:station:WAVCIS:CSI09:1,2009-07-01T22:00:00Z,29.1015,-89.9782,1009.85,11111222 
WAVCIS,ioos:station:WAVCIS:CSI09:1,2009-07-01T23:00:00Z,29.1015,-89.9782,1009.49,11111222 
WAVCIS,ioos:station:WAVCIS:CSI09:1,2009-07-02T00:00:00Z,29.1015,-89.9782,1009.69,11111222 
WAVCIS,ioos:station:WAVCIS:CSI09:1,2009-07-02T01:00:00Z,29.1015,-89.9782,1010.2,11111222 
WAVCIS,ioos:station:WAVCIS:CSI09:1,2009-07-02T02:00:00Z,29.1015,-89.9782,1010.58,11111222 
WAVCIS,ioos:station:WAVCIS:CSI09:1,2009-07-02T03:00:00Z,29.1015,-89.9782,1011.04,11111222 
WAVCIS,ioos:station:WAVCIS:CSI09:1,2009-07-02T04:00:00Z,29.1015,-89.9782,1011.36,11111222 
WAVCIS,ioos:station:WAVCIS:CSI09:1,2009-07-02T05:00:00Z,29.1015,-89.9782,1011.53,11111222 
WAVCIS,ioos:station:WAVCIS:CSI09:1,2009-07-02T06:00:00Z,29.1015,-89.9782,1011.46,11111222 
WAVCIS,ioos:station:WAVCIS:CSI09:1,2009-07-02T07:00:00Z,29.1015,-89.9782,1010.93,11111222 
WAVCIS,ioos:station:WAVCIS:CSI09:1,2009-07-02T08:00:00Z,29.1015,-89.9782,1011.0,11111222 
WAVCIS,ioos:station:WAVCIS:CSI09:1,2009-07-02T09:00:00Z,29.1015,-89.9782,1011.67,11111222 
WAVCIS,ioos:station:WAVCIS:CSI09:1,2009-07-02T10:00:00Z,29.1015,-89.9782,1012.22,11111222 
WAVCIS,ioos:station:WAVCIS:CSI09:1,2009-07-02T11:00:00Z,29.1015,-89.9782,1012.51,11111222 
WAVCIS,ioos:station:WAVCIS:CSI09:1,2009-07-02T12:00:00Z,29.1015,-89.9782,1013.25,11111222 
WAVCIS,ioos:station:WAVCIS:CSI09:1,2009-07-02T13:00:00Z,29.1015,-89.9782,1013.91,11111222 
WAVCIS,ioos:station:WAVCIS:CSI09:1,2009-07-02T14:00:00Z,29.1015,-89.9782,1014.45,11111222 
WAVCIS,ioos:station:WAVCIS:CSI09:1,2009-07-02T15:00:00Z,29.1015,-89.9782,1014.77,11111222 
WAVCIS,ioos:station:WAVCIS:CSI09:1,2009-07-02T16:00:00Z,29.1015,-89.9782,1015.17,11111222 
WAVCIS,ioos:station:WAVCIS:CSI09:1,2009-07-02T17:00:00Z,29.1015,-89.9782,1015.3,11111222 
WAVCIS,ioos:station:WAVCIS:CSI09:1,2009-07-02T18:00:00Z,29.1015,-89.9782,1015.35,11111222 
WAVCIS,ioos:station:WAVCIS:CSI09:1,2009-07-02T19:00:00Z,29.1015,-89.9782,1015.32,11111222 
WAVCIS,ioos:station:WAVCIS:CSI09:1,2009-07-02T20:00:00Z,29.1015,-89.9782,1014.93,11111222 
WAVCIS,ioos:station:WAVCIS:CSI09:1,2009-07-02T21:00:00Z,29.1015,-89.9782,1014.11,11111222 
WAVCIS,ioos:station:WAVCIS:CSI09:1,2009-07-02T22:00:00Z,29.1015,-89.9782,1013.79,11111222 
WAVCIS,ioos:station:WAVCIS:CSI09:1,2009-07-02T23:00:00Z,29.1015,-89.9782,1013.7,11111222 
WAVCIS,ioos:station:WAVCIS:CSI09:1,2009-07-03T00:00:00Z,29.1015,-89.9782,1013.66,11111222 
WAVCIS,ioos:station:WAVCIS:CSI09:1,2009-07-03T01:00:00Z,29.1015,-89.9782,1014.3,11111222 
WAVCIS,ioos:station:WAVCIS:CSI09:1,2009-07-03T02:00:00Z,29.1015,-89.9782,1014.4,11111222 
WAVCIS,ioos:station:WAVCIS:CSI09:1,2009-07-03T03:00:00Z,29.1015,-89.9782,1015.07,11111222 
WAVCIS,ioos:station:WAVCIS:CSI09:1,2009-07-03T04:00:00Z,29.1015,-89.9782,1015.71,11111222 
WAVCIS,ioos:station:WAVCIS:CSI09:1,2009-07-03T05:00:00Z,29.1015,-89.9782,1015.22,11111222 
WAVCIS,ioos:station:WAVCIS:CSI09:1,2009-07-03T06:00:00Z,29.1015,-89.9782,1015.06,11111222 
WAVCIS,ioos:station:WAVCIS:CSI09:1,2009-07-03T07:00:00Z,29.1015,-89.9782,1014.78,11111222 
WAVCIS,ioos:station:WAVCIS:CSI09:1,2009-07-03T08:00:00Z,29.1015,-89.9782,1014.77,11111222 
WAVCIS,ioos:station:WAVCIS:CSI09:1,2009-07-03T09:00:00Z,29.1015,-89.9782,1015.27,11111222 
WAVCIS,ioos:station:WAVCIS:CSI09:1,2009-07-03T10:00:00Z,29.1015,-89.9782,1015.8,11111222 
WAVCIS,ioos:station:WAVCIS:CSI09:1,2009-07-03T11:00:00Z,29.1015,-89.9782,1016.92,11111222 
WAVCIS,ioos:station:WAVCIS:CSI09:1,2009-07-03T12:00:00Z,29.1015,-89.9782,1017.32,11111222 
WAVCIS,ioos:station:WAVCIS:CSI09:1,2009-07-03T13:00:00Z,29.1015,-89.9782,1017.8,11111222 
WAVCIS,ioos:station:WAVCIS:CSI09:1,2009-07-03T14:00:00Z,29.1015,-89.9782,1018.18,11111222 
WAVCIS,ioos:station:WAVCIS:CSI09:1,2009-07-03T15:00:00Z,29.1015,-89.9782,1018.26,11111222 
WAVCIS,ioos:station:WAVCIS:CSI09:1,2009-07-03T16:00:00Z,29.1015,-89.9782,1018.41,11111222 
WAVCIS,ioos:station:WAVCIS:CSI09:1,2009-07-03T17:00:00Z,29.1015,-89.9782,1018.54,11111222 
WAVCIS,ioos:station:WAVCIS:CSI09:1,2009-07-03T18:00:00Z,29.1015,-89.9782,1018.22,11111222 
WAVCIS,ioos:station:WAVCIS:CSI09:1,2009-07-03T19:00:00Z,29.1015,-89.9782,1017.56,11111222 
WAVCIS,ioos:station:WAVCIS:CSI09:1,2009-07-03T20:00:00Z,29.1015,-89.9782,1017.11,11111222 
WAVCIS,ioos:station:WAVCIS:CSI09:1,2009-07-03T21:00:00Z,29.1015,-89.9782,1016.5,11111222 
WAVCIS,ioos:station:WAVCIS:CSI09:1,2009-07-03T22:00:00Z,29.1015,-89.9782,1016.07,11111222 
WAVCIS,ioos:station:WAVCIS:CSI09:1,2009-07-03T23:00:00Z,29.1015,-89.9782,1015.85,11111222 
WAVCIS,ioos:station:WAVCIS:CSI09:1,2009-07-04T00:00:00Z,29.1015,-89.9782,1015.85,11111222 
WAVCIS,ioos:station:WAVCIS:CSI09:1,2009-07-04T01:00:00Z,29.1015,-89.9782,1016.25,11111222 
WAVCIS,ioos:station:WAVCIS:CSI09:1,2009-07-04T02:00:00Z,29.1015,-89.9782,1016.38,11111222 
WAVCIS,ioos:station:WAVCIS:CSI09:1,2009-07-04T03:00:00Z,29.1015,-89.9782,1016.62,11111222 
WAVCIS,ioos:station:WAVCIS:CSI09:1,2009-07-04T04:00:00Z,29.1015,-89.9782,1016.68,11111222 
WAVCIS,ioos:station:WAVCIS:CSI09:1,2009-07-04T05:00:00Z,29.1015,-89.9782,1016.34,11111222 
WAVCIS,ioos:station:WAVCIS:CSI09:1,2009-07-04T06:00:00Z,29.1015,-89.9782,1015.96,11111222 
WAVCIS,ioos:station:WAVCIS:CSI09:1,2009-07-04T07:00:00Z,29.1015,-89.9782,1015.53,11111222 
WAVCIS,ioos:station:WAVCIS:CSI09:1,2009-07-04T08:00:00Z,29.1015,-89.9782,1015.74,11111222 
WAVCIS,ioos:station:WAVCIS:CSI09:1,2009-07-04T09:00:00Z,29.1015,-89.9782,1015.86,11111222 
WAVCIS,ioos:station:WAVCIS:CSI09:1,2009-07-04T10:00:00Z,29.1015,-89.9782,1016.11,11111222 
WAVCIS,ioos:station:WAVCIS:CSI09:1,2009-07-04T11:00:00Z,29.1015,-89.9782,1016.27,11111222 
WAVCIS,ioos:station:WAVCIS:CSI09:1,2009-07-04T12:00:00Z,29.1015,-89.9782,1016.69,11111222 
WAVCIS,ioos:station:WAVCIS:CSI09:1,2009-07-04T13:00:00Z,29.1015,-89.9782,1017.05,11111222 
WAVCIS,ioos:station:WAVCIS:CSI09:1,2009-07-04T14:00:00Z,29.1015,-89.9782,1017.63,11111222 
WAVCIS,ioos:station:WAVCIS:CSI09:1,2009-07-04T15:00:00Z,29.1015,-89.9782,1017.72,11111222 
WAVCIS,ioos:station:WAVCIS:CSI09:1,2009-07-04T16:00:00Z,29.1015,-89.9782,1017.34,11111222 
WAVCIS,ioos:station:WAVCIS:CSI09:1,2009-07-04T17:00:00Z,29.1015,-89.9782,1017.46,11111222 
WAVCIS,ioos:station:WAVCIS:CSI09:1,2009-07-04T18:00:00Z,29.1015,-89.9782,1017.29,11111222 
WAVCIS,ioos:station:WAVCIS:CSI09:1,2009-07-04T19:00:00Z,29.1015,-89.9782,1016.63,11111222 
WAVCIS,ioos:station:WAVCIS:CSI09:1,2009-07-04T20:00:00Z,29.1015,-89.9782,1015.9,11111222 
WAVCIS,ioos:station:WAVCIS:CSI09:1,2009-07-04T21:00:00Z,29.1015,-89.9782,1015.36,11111222 
WAVCIS,ioos:station:WAVCIS:CSI09:1,2009-07-04T22:00:00Z,29.1015,-89.9782,1014.87,11111222 
WAVCIS,ioos:station:WAVCIS:CSI09:1,2009-07-04T23:00:00Z,29.1015,-89.9782,1014.26,11111222 
WAVCIS,ioos:station:WAVCIS:CSI09:1,2009-07-05T00:00:00Z,29.1015,-89.9782,1013.96,11111222 
WAVCIS,ioos:station:WAVCIS:CSI09:1,2009-07-05T01:00:00Z,29.1015,-89.9782,1014.22,11111222 
WAVCIS,ioos:station:WAVCIS:CSI09:1,2009-07-05T02:00:00Z,29.1015,-89.9782,1013.8,11111222 
WAVCIS,ioos:station:WAVCIS:CSI09:1,2009-07-05T03:00:00Z,29.1015,-89.9782,1013.83,11111222 
WAVCIS,ioos:station:WAVCIS:CSI09:1,2009-07-05T04:00:00Z,29.1015,-89.9782,1014.22,11111222 
WAVCIS,ioos:station:WAVCIS:CSI09:1,2009-07-05T05:00:00Z,29.1015,-89.9782,1014.29,11111222 
WAVCIS,ioos:station:WAVCIS:CSI09:1,2009-07-05T06:00:00Z,29.1015,-89.9782,1014.36,11111222 
WAVCIS,ioos:station:WAVCIS:CSI09:1,2009-07-05T07:00:00Z,29.1015,-89.9782,1014.13,11111222 
WAVCIS,ioos:station:WAVCIS:CSI09:1,2009-07-05T08:00:00Z,29.1015,-89.9782,1013.63,11111222 
WAVCIS,ioos:station:WAVCIS:CSI09:1,2009-07-05T09:00:00Z,29.1015,-89.9782,1013.21,11111222 
WAVCIS,ioos:station:WAVCIS:CSI09:1,2009-07-05T10:00:00Z,29.1015,-89.9782,1013.24,11111222 
WAVCIS,ioos:station:WAVCIS:CSI09:1,2009-07-05T11:00:00Z,29.1015,-89.9782,1013.83,11111222 
WAVCIS,ioos:station:WAVCIS:CSI09:1,2009-07-05T12:00:00Z,29.1015,-89.9782,1014.14,11111222 
WAVCIS,ioos:station:WAVCIS:CSI09:1,2009-07-05T13:00:00Z,29.1015,-89.9782,1014.4,11111222 
WAVCIS,ioos:station:WAVCIS:CSI09:1,2009-07-05T14:00:00Z,29.1015,-89.9782,1014.86,11111222 
WAVCIS,ioos:station:WAVCIS:CSI09:1,2009-07-05T15:00:00Z,29.1015,-89.9782,1014.91,11111222 
WAVCIS,ioos:station:WAVCIS:CSI09:1,2009-07-05T16:00:00Z,29.1015,-89.9782,1014.56,11111222 
WAVCIS,ioos:station:WAVCIS:CSI09:1,2009-07-05T17:00:00Z,29.1015,-89.9782,1014.92,11111222 
WAVCIS,ioos:station:WAVCIS:CSI09:1,2009-07-05T18:00:00Z,29.1015,-89.9782,1014.63,11111222 
WAVCIS,ioos:station:WAVCIS:CSI09:1,2009-07-05T19:00:00Z,29.1015,-89.9782,1014.09,11111222 
WAVCIS,ioos:station:WAVCIS:CSI09:1,2009-07-05T20:00:00Z,29.1015,-89.9782,1013.66,11111222 
WAVCIS,ioos:station:WAVCIS:CSI09:1,2009-07-05T21:00:00Z,29.1015,-89.9782,1013.08,11111222 
WAVCIS,ioos:station:WAVCIS:CSI09:1,2009-07-05T22:00:00Z,29.1015,-89.9782,1012.65,11111222 
WAVCIS,ioos:station:WAVCIS:CSI09:1,2009-07-05T23:00:00Z,29.1015,-89.9782,1012.1,11111222 
WAVCIS,ioos:station:WAVCIS:CSI09:1,2009-07-06T00:00:00Z,29.1015,-89.9782,1012.14,11111222 
WAVCIS,ioos:station:WAVCIS:CSI09:1,2009-07-06T01:00:00Z,29.1015,-89.9782,1011.93,11111222 
WAVCIS,ioos:station:WAVCIS:CSI09:1,2009-07-06T02:00:00Z,29.1015,-89.9782,1012.22,11111222 
WAVCIS,ioos:station:WAVCIS:CSI09:1,2009-07-06T03:00:00Z,29.1015,-89.9782,1012.85,11111222 
WAVCIS,ioos:station:WAVCIS:CSI09:1,2009-07-06T04:00:00Z,29.1015,-89.9782,1013.1,11111222 
WAVCIS,ioos:station:WAVCIS:CSI09:1,2009-07-06T05:00:00Z,29.1015,-89.9782,1012.64,11111222 
WAVCIS,ioos:station:WAVCIS:CSI09:1,2009-07-06T06:00:00Z,29.1015,-89.9782,1012.83,11111222 
WAVCIS,ioos:station:WAVCIS:CSI09:1,2009-07-06T07:00:00Z,29.1015,-89.9782,1012.29,11111222 
WAVCIS,ioos:station:WAVCIS:CSI09:1,2009-07-06T08:00:00Z,29.1015,-89.9782,1011.98,11111222 
WAVCIS,ioos:station:WAVCIS:CSI09:1,2009-07-06T09:00:00Z,29.1015,-89.9782,1011.93,11111222 
WAVCIS,ioos:station:WAVCIS:CSI09:1,2009-07-06T10:00:00Z,29.1015,-89.9782,1012.07,11111222 
WAVCIS,ioos:station:WAVCIS:CSI09:1,2009-07-06T11:00:00Z,29.1015,-89.9782,1012.18,11111222 
WAVCIS,ioos:station:WAVCIS:CSI09:1,2009-07-06T12:00:00Z,29.1015,-89.9782,1012.07,11111222 
WAVCIS,ioos:station:WAVCIS:CSI09:1,2009-07-06T13:00:00Z,29.1015,-89.9782,1011.89,11111222 
WAVCIS,ioos:station:WAVCIS:CSI09:1,2009-07-06T14:00:00Z,29.1015,-89.9782,1012.5,11111222 
WAVCIS,ioos:station:WAVCIS:CSI09:1,2009-07-06T15:00:00Z,29.1015,-89.9782,1012.57,11111222 
WAVCIS,ioos:station:WAVCIS:CSI09:1,2009-07-06T16:00:00Z,29.1015,-89.9782,1012.73,11111222 
WAVCIS,ioos:station:WAVCIS:CSI09:1,2009-07-06T17:00:00Z,29.1015,-89.9782,1012.56,11111222 
WAVCIS,ioos:station:WAVCIS:CSI09:1,2009-07-06T18:00:00Z,29.1015,-89.9782,1012.68,11111222 
WAVCIS,ioos:station:WAVCIS:CSI09:1,2009-07-06T19:00:00Z,29.1015,-89.9782,1012.57,11111222 
WAVCIS,ioos:station:WAVCIS:CSI09:1,2009-07-06T20:00:00Z,29.1015,-89.9782,1012.22,11111222 
WAVCIS,ioos:station:WAVCIS:CSI09:1,2009-07-06T21:00:00Z,29.1015,-89.9782,1012.17,11111222 
WAVCIS,ioos:station:WAVCIS:CSI09:1,2009-07-06T22:00:00Z,29.1015,-89.9782,1011.6,11111222 
WAVCIS,ioos:station:WAVCIS:CSI09:1,2009-07-06T23:00:00Z,29.1015,-89.9782,1010.93,11111222 
WAVCIS,ioos:station:WAVCIS:CSI09:1,2009-07-07T00:00:00Z,29.1015,-89.9782,1010.44,11111222 
WAVCIS,ioos:station:WAVCIS:CSI09:1,2009-07-07T01:00:00Z,29.1015,-89.9782,1010.47,11111222 
WAVCIS,ioos:station:WAVCIS:CSI09:1,2009-07-07T02:00:00Z,29.1015,-89.9782,1010.5,11111222 
WAVCIS,ioos:station:WAVCIS:CSI09:1,2009-07-07T03:00:00Z,29.1015,-89.9782,1010.89,11111222 
WAVCIS,ioos:station:WAVCIS:CSI09:1,2009-07-07T04:00:00Z,29.1015,-89.9782,1011.4,11111222 
WAVCIS,ioos:station:WAVCIS:CSI09:1,2009-07-07T05:00:00Z,29.1015,-89.9782,1011.33,11111222 
WAVCIS,ioos:station:WAVCIS:CSI09:1,2009-07-07T06:00:00Z,29.1015,-89.9782,1010.92,11111222 
WAVCIS,ioos:station:WAVCIS:CSI09:1,2009-07-07T07:00:00Z,29.1015,-89.9782,1010.47,11111222 
WAVCIS,ioos:station:WAVCIS:CSI09:1,2009-07-07T08:00:00Z,29.1015,-89.9782,1010.22,11111222 
WAVCIS,ioos:station:WAVCIS:CSI09:1,2009-07-07T09:00:00Z,29.1015,-89.9782,1009.74,11111222 
WAVCIS,ioos:station:WAVCIS:CSI09:1,2009-07-07T10:00:00Z,29.1015,-89.9782,1009.91,11111222 
WAVCIS,ioos:station:WAVCIS:CSI09:1,2009-07-07T11:00:00Z,29.1015,-89.9782,1010.21,11111222 
WAVCIS,ioos:station:WAVCIS:CSI09:1,2009-07-07T12:00:00Z,29.1015,-89.9782,1010.34,11111222 
WAVCIS,ioos:station:WAVCIS:CSI09:1,2009-07-07T13:00:00Z,29.1015,-89.9782,1010.93,11111222 
WAVCIS,ioos:station:WAVCIS:CSI09:1,2009-07-07T14:00:00Z,29.1015,-89.9782,1011.79,11111222 
WAVCIS,ioos:station:WAVCIS:CSI09:1,2009-07-07T15:00:00Z,29.1015,-89.9782,1012.03,11111222 
WAVCIS,ioos:station:WAVCIS:CSI09:1,2009-07-07T16:00:00Z,29.1015,-89.9782,1012.62,11111222 
WAVCIS,ioos:station:WAVCIS:CSI09:1,2009-07-07T17:00:00Z,29.1015,-89.9782,1012.49,11111222 
WAVCIS,ioos:station:WAVCIS:CSI09:1,2009-07-07T18:00:00Z,29.1015,-89.9782,1012.18,11111222 
WAVCIS,ioos:station:WAVCIS:CSI09:1,2009-07-07T19:00:00Z,29.1015,-89.9782,1011.76,11111222 
WAVCIS,ioos:station:WAVCIS:CSI09:1,2009-07-07T20:00:00Z,29.1015,-89.9782,1011.25,11111222 
WAVCIS,ioos:station:WAVCIS:CSI09:1,2009-07-07T21:00:00Z,29.1015,-89.9782,1011.25,11111222 
WAVCIS,ioos:station:WAVCIS:CSI09:1,2009-07-07T22:00:00Z,29.1015,-89.9782,1010.46,11111222 
WAVCIS,ioos:station:WAVCIS:CSI09:1,2009-07-07T23:00:00Z,29.1015,-89.9782,1010.29,11111222 
WAVCIS,ioos:station:WAVCIS:CSI09:1,2009-07-08T00:00:00Z,29.1015,-89.9782,1009.91,11111222 
WAVCIS,ioos:station:WAVCIS:CSI09:1,2009-07-08T01:00:00Z,29.1015,-89.9782,1009.73,11111222 
WAVCIS,ioos:station:WAVCIS:CSI09:1,2009-07-08T02:00:00Z,29.1015,-89.9782,1009.93,11111222 
WAVCIS,ioos:station:WAVCIS:CSI09:1,2009-07-08T03:00:00Z,29.1015,-89.9782,1010.55,11111222 
WAVCIS,ioos:station:WAVCIS:CSI09:1,2009-07-08T04:00:00Z,29.1015,-89.9782,1011.34,11111222 
WAVCIS,ioos:station:WAVCIS:CSI09:1,2009-07-08T05:00:00Z,29.1015,-89.9782,1011.32,11111222 
WAVCIS,ioos:station:WAVCIS:CSI09:1,2009-07-08T06:00:00Z,29.1015,-89.9782,1010.95,11111222 
WAVCIS,ioos:station:WAVCIS:CSI09:1,2009-07-08T07:00:00Z,29.1015,-89.9782,1010.41,11111222 
WAVCIS,ioos:station:WAVCIS:CSI09:1,2009-07-08T08:00:00Z,29.1015,-89.9782,1010.02,11111222 
WAVCIS,ioos:station:WAVCIS:CSI09:1,2009-07-08T09:00:00Z,29.1015,-89.9782,1010.34,11111222 
WAVCIS,ioos:station:WAVCIS:CSI09:1,2009-07-08T10:00:00Z,29.1015,-89.9782,1010.07,11111222 
WAVCIS,ioos:station:WAVCIS:CSI09:1,2009-07-08T11:00:00Z,29.1015,-89.9782,1010.59,11111222 
WAVCIS,ioos:station:WAVCIS:CSI09:1,2009-07-08T12:00:00Z,29.1015,-89.9782,1011.2,11111222 
WAVCIS,ioos:station:WAVCIS:CSI09:1,2009-07-08T13:00:00Z,29.1015,-89.9782,1012.04,11111222 
WAVCIS,ioos:station:WAVCIS:CSI09:1,2009-07-08T14:00:00Z,29.1015,-89.9782,1012.56,11111222 
WAVCIS,ioos:station:WAVCIS:CSI09:1,2009-07-08T15:00:00Z,29.1015,-89.9782,1012.59,11111222 
WAVCIS,ioos:station:WAVCIS:CSI09:1,2009-07-08T16:00:00Z,29.1015,-89.9782,1012.49,11111222 
WAVCIS,ioos:station:WAVCIS:CSI09:1,2009-07-08T17:00:00Z,29.1015,-89.9782,1012.48,11111222 
WAVCIS,ioos:station:WAVCIS:CSI09:1,2009-07-08T18:00:00Z,29.1015,-89.9782,1012.46,11111222 
WAVCIS,ioos:station:WAVCIS:CSI09:1,2009-07-08T19:00:00Z,29.1015,-89.9782,1011.94,11111222 
WAVCIS,ioos:station:WAVCIS:CSI09:1,2009-07-08T20:00:00Z,29.1015,-89.9782,1011.82,11111222 
WAVCIS,ioos:station:WAVCIS:CSI09:1,2009-07-08T21:00:00Z,29.1015,-89.9782,1011.6,11111222 
WAVCIS,ioos:station:WAVCIS:CSI09:1,2009-07-08T22:00:00Z,29.1015,-89.9782,1011.94,11111222 
WAVCIS,ioos:station:WAVCIS:CSI09:1,2009-07-08T23:00:00Z,29.1015,-89.9782,1011.15,11111222 
WAVCIS,ioos:station:WAVCIS:CSI09:1,2009-07-09T00:00:00Z,29.1015,-89.9782,1011.84,11111222 
WAVCIS,ioos:station:WAVCIS:CSI09:1,2009-07-09T01:00:00Z,29.1015,-89.9782,1011.43,11111222 
WAVCIS,ioos:station:WAVCIS:CSI09:1,2009-07-09T02:00:00Z,29.1015,-89.9782,1011.92,11111222 
WAVCIS,ioos:station:WAVCIS:CSI09:1,2009-07-09T03:00:00Z,29.1015,-89.9782,1012.55,11111222 
WAVCIS,ioos:station:WAVCIS:CSI09:1,2009-07-09T04:00:00Z,29.1015,-89.9782,1013.01,11111222 
WAVCIS,ioos:station:WAVCIS:CSI09:1,2009-07-09T05:00:00Z,29.1015,-89.9782,1013.22,11111222 
WAVCIS,ioos:station:WAVCIS:CSI09:1,2009-07-09T06:00:00Z,29.1015,-89.9782,1013.04,11111222 
WAVCIS,ioos:station:WAVCIS:CSI09:1,2009-07-09T07:00:00Z,29.1015,-89.9782,1012.86,11111222 
WAVCIS,ioos:station:WAVCIS:CSI09:1,2009-07-09T08:00:00Z,29.1015,-89.9782,1012.51,11111222 
WAVCIS,ioos:station:WAVCIS:CSI09:1,2009-07-09T09:00:00Z,29.1015,-89.9782,1012.36,11111222 
WAVCIS,ioos:station:WAVCIS:CSI09:1,2009-07-09T10:00:00Z,29.1015,-89.9782,1012.8,11111222 
WAVCIS,ioos:station:WAVCIS:CSI09:1,2009-07-09T11:00:00Z,29.1015,-89.9782,1013.39,11111222 
WAVCIS,ioos:station:WAVCIS:CSI09:1,2009-07-09T12:00:00Z,29.1015,-89.9782,1014.04,11111222 
WAVCIS,ioos:station:WAVCIS:CSI09:1,2009-07-09T13:00:00Z,29.1015,-89.9782,1014.44,11111222 
WAVCIS,ioos:station:WAVCIS:CSI09:1,2009-07-09T14:00:00Z,29.1015,-89.9782,1014.87,11111222 
WAVCIS,ioos:station:WAVCIS:CSI09:1,2009-07-09T15:00:00Z,29.1015,-89.9782,1015.26,11111222 
WAVCIS,ioos:station:WAVCIS:CSI09:1,2009-07-09T16:00:00Z,29.1015,-89.9782,1015.84,11111222 
WAVCIS,ioos:station:WAVCIS:CSI09:1,2009-07-09T17:00:00Z,29.1015,-89.9782,1016.45,11111222 
WAVCIS,ioos:station:WAVCIS:CSI09:1,2009-07-09T18:00:00Z,29.1015,-89.9782,1015.78,11111222 
WAVCIS,ioos:station:WAVCIS:CSI09:1,2009-07-09T19:00:00Z,29.1015,-89.9782,1016.07,11111222 
WAVCIS,ioos:station:WAVCIS:CSI09:1,2009-07-09T20:00:00Z,29.1015,-89.9782,1015.06,11111222 
WAVCIS,ioos:station:WAVCIS:CSI09:1,2009-07-09T21:00:00Z,29.1015,-89.9782,1016.13,11111222 
WAVCIS,ioos:station:WAVCIS:CSI09:1,2009-07-09T22:00:00Z,29.1015,-89.9782,1015.88,11111222 
WAVCIS,ioos:station:WAVCIS:CSI09:1,2009-07-09T23:00:00Z,29.1015,-89.9782,1014.99,11111222 
WAVCIS,ioos:station:WAVCIS:CSI09:1,2009-07-10T00:00:00Z,29.1015,-89.9782,1014.89,11111222 
WAVCIS,ioos:station:WAVCIS:CSI09:1,2009-07-10T01:00:00Z,29.1015,-89.9782,1015.46,11111222 
WAVCIS,ioos:station:WAVCIS:CSI09:1,2009-07-10T02:00:00Z,29.1015,-89.9782,1015.56,11111222 
WAVCIS,ioos:station:WAVCIS:CSI09:1,2009-07-10T03:00:00Z,29.1015,-89.9782,1016.04,11111222 
WAVCIS,ioos:station:WAVCIS:CSI09:1,2009-07-10T04:00:00Z,29.1015,-89.9782,1016.66,11111222 
WAVCIS,ioos:station:WAVCIS:CSI09:1,2009-07-10T05:00:00Z,29.1015,-89.9782,1016.98,11111222 
WAVCIS,ioos:station:WAVCIS:CSI09:1,2009-07-10T06:00:00Z,29.1015,-89.9782,1016.92,11111222 
WAVCIS,ioos:station:WAVCIS:CSI09:1,2009-07-10T07:00:00Z,29.1015,-89.9782,1016.83,11111222 
WAVCIS,ioos:station:WAVCIS:CSI09:1,2009-07-10T08:00:00Z,29.1015,-89.9782,1016.8,11111222 
WAVCIS,ioos:station:WAVCIS:CSI09:1,2009-07-10T09:00:00Z,29.1015,-89.9782,1016.93,11111222 
WAVCIS,ioos:station:WAVCIS:CSI09:1,2009-07-10T10:00:00Z,29.1015,-89.9782,1016.87,11111222 
WAVCIS,ioos:station:WAVCIS:CSI09:1,2009-07-10T11:00:00Z,29.1015,-89.9782,1017.3,11111222 
WAVCIS,ioos:station:WAVCIS:CSI09:1,2009-07-10T12:00:00Z,29.1015,-89.9782,1017.67,11111222 
WAVCIS,ioos:station:WAVCIS:CSI09:1,2009-07-10T13:00:00Z,29.1015,-89.9782,1018.41,11111222 
WAVCIS,ioos:station:WAVCIS:CSI09:1,2009-07-10T14:00:00Z,29.1015,-89.9782,1018.86,11111222 
WAVCIS,ioos:station:WAVCIS:CSI09:1,2009-07-10T15:00:00Z,29.1015,-89.9782,1018.89,11111222 
WAVCIS,ioos:station:WAVCIS:CSI09:1,2009-07-10T16:00:00Z,29.1015,-89.9782,1019.09,11111222 
WAVCIS,ioos:station:WAVCIS:CSI09:1,2009-07-10T17:00:00Z,29.1015,-89.9782,1019.6,11111222 
WAVCIS,ioos:station:WAVCIS:CSI09:1,2009-07-10T18:00:00Z,29.1015,-89.9782,1019.45,11111222 
WAVCIS,ioos:station:WAVCIS:CSI09:1,2009-07-10T19:00:00Z,29.1015,-89.9782,1019.36,11111222 
WAVCIS,ioos:station:WAVCIS:CSI09:1,2009-07-10T20:00:00Z,29.1015,-89.9782,1019.44,11111222 
WAVCIS,ioos:station:WAVCIS:CSI09:1,2009-07-10T21:00:00Z,29.1015,-89.9782,1018.78,11111222 
WAVCIS,ioos:station:WAVCIS:CSI09:1,2009-07-10T22:00:00Z,29.1015,-89.9782,1018.67,11111222 
WAVCIS,ioos:station:WAVCIS:CSI09:1,2009-07-10T23:00:00Z,29.1015,-89.9782,1018.77,11111222 
WAVCIS,ioos:station:WAVCIS:CSI09:1,2009-07-11T00:00:00Z,29.1015,-89.9782,1018.51,11111222 
WAVCIS,ioos:station:WAVCIS:CSI09:1,2009-07-11T01:00:00Z,29.1015,-89.9782,1018.9,11111222 
WAVCIS,ioos:station:WAVCIS:CSI09:1,2009-07-11T02:00:00Z,29.1015,-89.9782,1019.18,11111222 
WAVCIS,ioos:station:WAVCIS:CSI09:1,2009-07-11T03:00:00Z,29.1015,-89.9782,1019.93,11111222 
WAVCIS,ioos:station:WAVCIS:CSI09:1,2009-07-11T04:00:00Z,29.1015,-89.9782,1020.03,11111222 
WAVCIS,ioos:station:WAVCIS:CSI09:1,2009-07-11T05:00:00Z,29.1015,-89.9782,1020.31,11111222 
WAVCIS,ioos:station:WAVCIS:CSI09:1,2009-07-11T06:00:00Z,29.1015,-89.9782,1020.26,11111222 
WAVCIS,ioos:station:WAVCIS:CSI09:1,2009-07-11T07:00:00Z,29.1015,-89.9782,1019.42,11111222 
WAVCIS,ioos:station:WAVCIS:CSI09:1,2009-07-11T08:00:00Z,29.1015,-89.9782,1019.01,11111222 
WAVCIS,ioos:station:WAVCIS:CSI09:1,2009-07-11T09:00:00Z,29.1015,-89.9782,1018.81,11111222 
WAVCIS,ioos:station:WAVCIS:CSI09:1,2009-07-11T10:00:00Z,29.1015,-89.9782,1018.93,11111222 
WAVCIS,ioos:station:WAVCIS:CSI09:1,2009-07-11T11:00:00Z,29.1015,-89.9782,1019.76,11111222 
WAVCIS,ioos:station:WAVCIS:CSI09:1,2009-07-11T12:00:00Z,29.1015,-89.9782,1020.26,11111222 
WAVCIS,ioos:station:WAVCIS:CSI09:1,2009-07-11T13:00:00Z,29.1015,-89.9782,1020.67,11111222 
WAVCIS,ioos:station:WAVCIS:CSI09:1,2009-07-11T14:00:00Z,29.1015,-89.9782,1021.02,11111222 
WAVCIS,ioos:station:WAVCIS:CSI09:1,2009-07-11T15:00:00Z,29.1015,-89.9782,1021.14,11111222 
WAVCIS,ioos:station:WAVCIS:CSI09:1,2009-07-11T16:00:00Z,29.1015,-89.9782,1021.36,11111222 
WAVCIS,ioos:station:WAVCIS:CSI09:1,2009-07-11T17:00:00Z,29.1015,-89.9782,1021.78,11111222 
WAVCIS,ioos:station:WAVCIS:CSI09:1,2009-07-11T18:00:00Z,29.1015,-89.9782,1021.53,11111222 
WAVCIS,ioos:station:WAVCIS:CSI09:1,2009-07-11T19:00:00Z,29.1015,-89.9782,1021.21,11111222 
WAVCIS,ioos:station:WAVCIS:CSI09:1,2009-07-11T20:00:00Z,29.1015,-89.9782,1020.49,11111222 
WAVCIS,ioos:station:WAVCIS:CSI09:1,2009-07-11T21:00:00Z,29.1015,-89.9782,1020.01,11111222 
WAVCIS,ioos:station:WAVCIS:CSI09:1,2009-07-11T22:00:00Z,29.1015,-89.9782,1019.52,11111222 